Location: Newark
(52.3500°N, 175.9667°E)
Time: 21:04:56
(UTC+00:00)

Transit 4A - Pass Details

Date: 27 April 2021
Orbit: 871 x 974 km, 66.8° (Epoch: 16 May)

Event Time Altitude Azimuth Distance (km) Brightness Sun altitude
Rises 19:27:46 0° 317° (NW) 3,513 10.5 22.4°
Reaches altitude 10° 19:30:32 10° 307° (NW) 2,555 9.8 22.8°
Maximum altitude 19:35:37 31° 248° (WSW) 1,495 8.8 23.6°
Drops below altitude 10° 19:40:37 10° 188° (S) 2,513 10.3 24.3°
Sets 19:43:19 0° 178° (S) 3,446 11.0 24.8°
